STARLINK-2732, 48646

Orbit data source: Space-Track

STARLINK-2732, 48646 is a payload satellite owned by SpaceX/Seattle (US) in LEO that was launched on Wed, 26 May 2021 UTC via an FALCON 9 launch vehicle from the Air Force Eastern Test Range (AFETR). Payload-class satellites include a variety of spacecraft equipped with specific instruments for various scientific and technological missions. These include communications satellites like Starlink; space stations such as the ISS; scientific satellites like the Hubble; Earth observation satellites from companies like Planet Labs, Umbra, and HawkEye 360; GPS; miniature CubeSats for education and research; and military/defense satellites.

Loading next visibility...
Identifier
48646, 2021-044J
Orbit
LEO
Country
Flag of USUS
Related business
Manufacturer
SpaceX/Seattle
Mission
Operational Commercial Communications
Bus & Motor
STARLINK, Unknown motor
Mass
260 kg wet, ~248 kg dry
Launch date (UTC)
2021-05-26 (5 years ago)
Launch vehicle
FALCON 9
Launch site
Air Force Eastern Test Range (AFETR)
Object type
Payload
Rocket body
Debris
Shape & HBR
Box + 1 Pan, 10.1 m
Radar Cross Section
13.562 m², Large (>1 m²)

Expand to show TLE details & history
Last TLE update: 22 hours ago

TLE from 22 hours ago
0 STARLINK-2732
1 48646U 21044J   25348.71134319 -.00000919  00000-0 -42782-4 0  9998
2 48646  53.0536 143.1011 0001269  92.3051 267.8083 15.06399487250903
Epoch: 2025-12-14T17:04Z
TLE epoch observation values (Epoch: 2025-12-14T17:04:20.051Z)
Latitude
-0.00005°
Longitude
163.39718°
Altitude
548.126 km
Speed
7.589 km/s
True Right ascension
09h 32m 24s
True Declination
0° 00' 00"
Sunlit
Object was in full shadow at epoch
Visualization orbit readout
Latitude
Unknown
Longitude
Unknown
Altitude
Unknown
Speed
Unknown
Apparent Right ascension
Unknown
Apparent Declination
Unknown
Sunlit
N/A
Visualization observer readout
Local Sidereal Time
13:19:55
Azimuth
Unknown
Elevation
Unknown
Doppler factor
Unknown
Orbital elements
Apogee altitude
548.363 km
Perigee altitude
546.605 km
Semi-major axis
6,925.621 km
Eccentricity
0.00013
Inclination
53.0536°
RAAN
143.1011°
Arg. of periapsis
92.3051°
True anomaly
267.79377°
Mean anomaly
267.8083°
Eccentric anomaly
267.80103°
Mean motion
3.76578 °/min
Orbital period
95.6 mins
BSTAR
-0.000042782
Loading maneuver chart data...
Computing Atmospheric mass density...
Loading historical data...
Loading historical data...
Loading historical data...
Loading historical data...
Loading historical data...
Loading historical data...
Loading historical data...

Documentation

Showing up to 5 results
|